Weather History for Ann Arbor, MI

Change the Weather History Date:

Tuesday, November 13, 2012

  Actual Average Record
Temperature  
Mean Temperature 29 °F -  
Max Temperature 34 °F 47 °F 63 °F (2005)
Min Temperature 23 °F 30 °F 16 °F (2013)
Degree Days  
Heating Degree Days 36    
Moisture  
Dew Point 21 °F    
Average Humidity 64    
Maximum Humidity 92    
Minimum Humidity 52    
Precipitation  
Precipitation 0.00 in - - ()
Sea Level Pressure  
Sea Level Pressure 30.45 in    
Wind  
Wind Speed 8 mph (WNW)    
Max Wind Speed 15 mph    
Max Gust Speed -    
Visibility 10 miles    
Events Snow    
Averages and records for this station are not official NWS values.
T = Trace of Precipitation, MM = Missing Value Source: NWS Daily Summary

Daily Weather History Graph

Daily Weather History Graph

Search for Another Location

Airport:

Trip Planner

Search our weather history database for the weather conditions in past years. The results will help you decide how hot, cold, wet, or windy it might be!

Date:

Astronomy

Nov. 13, 2012 Rise Set
Actual Time 7:23 AM EST 5:14 PM EST
Civil Twilight 6:53 AM EST 5:44 PM EST
Nautical Twilight 6:19 AM EST 6:18 PM EST
Astronomical Twilight 5:46 AM EST 6:51 PM EST
Moon 7:00 AM EST (11/13) 5:06 PM EST (11/13)
Length of Visible Light 10h 51m
Length of Day
9h 51m
Waning Crescent, 0% of the Moon is Illuminated
Nov 13
Waning Crescent
Nov 13
New
Nov 20
First Quarter
Nov 28
Full
Dec 6
Last Quarter

Hourly Weather History & Observations

Time (EST) Temp. Windchill Dew Point Humidity Pressure Visibility Wind Dir Wind Speed Gust Speed Precip Events Conditions
12:53 AM 34.0 °F 24.2 °F 24.1 °F 67% 30.29 in 10.0 mi WSW 15.0 mph - N/A   Overcast
1:53 AM 34.0 °F 27.2 °F 24.1 °F 67% 30.30 in 10.0 mi WSW 8.1 mph - N/A   Overcast
2:53 AM 33.1 °F 25.5 °F 24.1 °F 70% 30.32 in 10.0 mi WNW 9.2 mph - N/A   Overcast
3:07 AM 33.8 °F 27.0 °F 24.8 °F 70% 30.30 in 10.0 mi WNW 8.1 mph - 0.00 in Snow Light Snow
3:18 AM 33.8 °F 25.3 °F 23.0 °F 65% 30.30 in 9.0 mi NW 11.5 mph - 0.00 in   Overcast
3:53 AM 33.1 °F 24.9 °F 21.0 °F 61% 30.34 in 10.0 mi WNW 10.4 mph - 0.00 in   Overcast
4:53 AM 32.0 °F 24.2 °F 19.0 °F 59% 30.35 in 10.0 mi WNW 9.2 mph - N/A   Overcast
5:53 AM 32.0 °F 26.4 °F 19.9 °F 61% 30.38 in 10.0 mi West 5.8 mph - N/A   Overcast
7:53 AM 32.0 °F 27.5 °F 19.9 °F 61% 30.43 in 10.0 mi NW 4.6 mph - N/A   Overcast
8:53 AM 33.1 °F 30.0 °F 21.0 °F 61% 30.45 in 10.0 mi NNW 3.5 mph - N/A   Overcast
9:53 AM 33.1 °F 26.1 °F 18.0 °F 54% 30.47 in 10.0 mi WNW 8.1 mph - N/A   Overcast
10:53 AM 33.1 °F 26.9 °F 18.0 °F 54% 30.49 in 10.0 mi WNW 6.9 mph - N/A   Overcast
11:53 AM 34.0 °F 27.2 °F 18.0 °F 52% 30.49 in 10.0 mi WNW 8.1 mph - N/A   Overcast
12:53 PM 34.0 °F 27.2 °F 18.0 °F 52% 30.48 in 10.0 mi WNW 8.1 mph - N/A   Overcast
1:53 PM 34.0 °F 27.2 °F 18.0 °F 52% 30.48 in 10.0 mi WNW 8.1 mph - N/A   Overcast
2:53 PM 34.0 °F 29.8 °F 18.0 °F 52% 30.48 in 10.0 mi WNW 4.6 mph - N/A   Overcast
3:53 PM 34.0 °F - 18.0 °F 52% 30.49 in 10.0 mi Calm Calm - N/A   Overcast
4:53 PM 33.1 °F 30.0 °F 19.0 °F 56% 30.51 in 10.0 mi WNW 3.5 mph - N/A   Overcast
5:53 PM 30.9 °F - 21.9 °F 69% 30.51 in 10.0 mi Calm Calm - N/A   Overcast
6:53 PM 32.0 °F - 21.0 °F 64% 30.52 in 10.0 mi Calm Calm - N/A   Overcast
7:53 PM 30.9 °F - 23.0 °F 72% 30.54 in 10.0 mi Calm Calm - N/A   Overcast
8:53 PM 30.0 °F - 23.0 °F 75% 30.55 in 10.0 mi Calm Calm - N/A   Overcast
9:53 PM 25.0 °F - 19.9 °F 81% 30.56 in 10.0 mi Calm Calm - N/A   Clear
10:53 PM 24.1 °F - 21.0 °F 88% 30.56 in 10.0 mi Calm Calm - N/A   Clear
11:53 PM 23.0 °F - 21.0 °F 92% 30.56 in 10.0 mi Calm Calm - N/A   Clear